Location: Malanoce
(44.2500°N, 7.4667°E)
Time: 22:51:09
(UTC+00:00)

BREEZE-M DEB (TANK) - Pass Details

Date: 17 November 2025
Orbit: 304 x 15917 km, 49.3° (Epoch: 09 December)

Event Time Altitude Azimuth Distance (km) Brightness Sun altitude
Rises 17:21:56 0° 260° (W) 2,045 7.2 -14.4°
Reaches altitude 10° 17:23:19 10° 266° (W) 1,345 5.7 -14.7°
Maximum altitude 17:25:47 57° 347° (NNW) 615 2.5 -15.1°
Enters shadow 17:28:32 23° 60° (ENE) 1,663 4.2 -15.6°
